PLF120 EPWA-EPWA

Flight info

Callsign PLF120
Flight time N/A
Altitude 24000
Route OLILA L621 GRUDA N133 IRLUN DCT EPCE N0380F190 DCT KARTI N133 GRUDA N191 SORIX
Aircraft B738/M-SDE2E3FGHIRWXY/LB1

Departure

Time 2026-05-01 15:00
Airport Warsaw Chopin Airport (EPWA)

Arrival

Time N/A
Airport Warsaw Chopin Airport (EPWA)
Time Latitude Longitude Altitude Speed Heading
2026-05-01 14:25 52.17406 20.97246 345 ft 0 kts 242°
2026-05-01 14:53 52.17406 20.97245 344 ft 1 kts 242°
2026-05-01 14:53 52.17398 20.97221 344 ft 3 kts 242°
2026-05-01 14:54 52.17390 20.97179 343 ft 4 kts 283°
2026-05-01 14:54 52.17415 20.97139 342 ft 5 kts 327°
2026-05-01 14:54 52.17450 20.97108 342 ft 6 kts 332°
2026-05-01 14:54 52.17502 20.97061 341 ft 10 kts 331°
2026-05-01 14:55 52.17567 20.97004 341 ft 10 kts 332°
2026-05-01 14:55 52.17622 20.96938 341 ft 9 kts 292°
2026-05-01 14:55 52.17603 20.96832 340 ft 10 kts 239°
2026-05-01 14:55 52.17562 20.96724 337 ft 11 kts 238°
2026-05-01 14:56 52.17516 20.96605 336 ft 12 kts 233°
2026-05-01 14:56 52.17458 20.96481 333 ft 14 kts 242°
2026-05-01 14:56 52.17397 20.96400 334 ft 11 kts 168°
2026-05-01 14:56 52.17328 20.96454 334 ft 12 kts 151°
2026-05-01 14:57 52.17234 20.96538 333 ft 18 kts 152°
2026-05-01 14:57 52.16927 20.96804 330 ft 28 kts 152°
2026-05-01 14:57 52.16757 20.96952 332 ft 26 kts 152°
2026-05-01 14:58 52.16638 20.97144 336 ft 23 kts 114°
2026-05-01 14:58 52.16572 20.97380 336 ft 22 kts 114°
2026-05-01 14:58 52.16510 20.97603 337 ft 21 kts 114°
2026-05-01 14:58 52.16460 20.97778 336 ft 12 kts 118°
2026-05-01 14:59 52.16388 20.97789 334 ft 12 kts 206°
2026-05-01 14:59 52.16313 20.97732 333 ft 9 kts 204°
2026-05-01 14:59 52.16305 20.97665 333 ft 8 kts 295°
2026-05-01 14:59 52.16378 20.97411 337 ft 55 kts 294°
2026-05-01 15:00 52.17050 20.94995 494 ft 159 kts 294°
2026-05-01 15:00 52.17495 20.93413 1181 ft 159 kts 300°
2026-05-01 15:00 52.18179 20.92105 1780 ft 154 kts 332°
2026-05-01 15:01 52.19215 20.91730 2287 ft 156 kts 355°
2026-05-01 15:01 52.20243 20.91238 2889 ft 157 kts 336°
2026-05-01 15:01 52.21151 20.90288 3415 ft 163 kts 323°
2026-05-01 15:01 52.21796 20.88665 3793 ft 184 kts 295°
2026-05-01 15:02 52.22348 20.86731 4164 ft 191 kts 315°
2026-05-01 15:02 52.23011 20.85759 4392 ft 198 kts 327°
2026-05-01 15:02 52.24475 20.83706 4908 ft 222 kts 319°
2026-05-01 15:02 52.25569 20.81784 5377 ft 237 kts 317°
2026-05-01 15:03 52.26804 20.79936 5824 ft 247 kts 332°
2026-05-01 15:03 52.28422 20.78983 6366 ft 252 kts 352°
2026-05-01 15:03 52.30146 20.78587 7069 ft 255 kts 355°
2026-05-01 15:03 52.31889 20.78192 7878 ft 256 kts 354°
2026-05-01 15:04 52.33644 20.77717 8649 ft 259 kts 353°
2026-05-01 15:04 52.35429 20.77410 9488 ft 257 kts
2026-05-01 15:04 52.37194 20.77525 10285 ft 258 kts
2026-05-01 15:04 52.38981 20.77802 10876 ft 268 kts
2026-05-01 15:05 52.40882 20.78102 11343 ft 283 kts
2026-05-01 15:05 52.42912 20.78386 11813 ft 298 kts
2026-05-01 15:05 52.45036 20.78654 12270 ft 313 kts
2026-05-01 15:05 52.47230 20.78636 12933 ft 323 kts 357°
2026-05-01 15:06 52.49409 20.77633 13744 ft 334 kts 340°
2026-05-01 15:06 52.51326 20.75498 14546 ft 346 kts 324°
2026-05-01 15:06 52.52972 20.72567 15334 ft 356 kts 315°
2026-05-01 15:06 52.54485 20.69307 16141 ft 362 kts 313°
2026-05-01 15:07 52.55956 20.65940 16901 ft 366 kts 312°
2026-05-01 15:07 52.57413 20.62560 17654 ft 370 kts 313°
2026-05-01 15:07 52.58913 20.59095 18422 ft 373 kts 313°
2026-05-01 15:07 52.60419 20.55649 19104 ft 377 kts 313°
2026-05-01 15:08 52.61956 20.52155 19803 ft 380 kts 313°
2026-05-01 15:08 52.63504 20.48649 20448 ft 385 kts 313°
2026-05-01 15:08 52.65095 20.45052 21047 ft 390 kts 314°
2026-05-01 15:08 52.66692 20.41437 21652 ft 394 kts 313°
2026-05-01 15:09 52.68281 20.37831 22282 ft 398 kts 313°
2026-05-01 15:09 52.69910 20.34138 22845 ft 402 kts 313°
2026-05-01 15:09 52.71621 20.30528 23399 ft 403 kts 316°
2026-05-01 15:09 52.73441 20.27042 24039 ft 403 kts 318°
2026-05-01 15:10 52.75300 20.23628 24270 ft 402 kts 319°
2026-05-01 15:10 52.79028 20.16878 24289 ft 394 kts 319°
2026-05-01 15:10 52.80874 20.13525 24288 ft 395 kts 319°
2026-05-01 15:11 52.82683 20.10155 24284 ft 397 kts 317°
2026-05-01 15:11 52.86245 20.03173 24281 ft 398 kts 316°
2026-05-01 15:11 52.87992 19.99685 24281 ft 399 kts 316°
2026-05-01 15:12 52.89764 19.96134 24283 ft 397 kts 316°
2026-05-01 15:12 52.93274 19.89105 24279 ft 398 kts 316°
2026-05-01 15:12 52.95035 19.85580 24284 ft 397 kts 316°
2026-05-01 15:13 53.00291 19.75047 24281 ft 397 kts 316°
2026-05-01 15:14 53.03815 19.67971 24289 ft 398 kts 316°
2026-05-01 15:14 53.05570 19.64440 24290 ft 398 kts 316°
2026-05-01 15:14 53.09217 19.57659 24292 ft 395 kts 321°
2026-05-01 15:15 53.13081 19.51203 24289 ft 394 kts 322°
2026-05-01 15:15 53.16954 19.44746 24294 ft 394 kts 321°
2026-05-01 15:16 53.20765 19.38301 24293 ft 393 kts 321°
2026-05-01 15:16 53.24541 19.31723 24294 ft 396 kts 318°
2026-05-01 15:17 53.28156 19.24813 24291 ft 398 kts 316°
2026-05-01 15:18 53.33532 19.14318 24293 ft 398 kts 316°
2026-05-01 15:18 53.35338 19.10806 24290 ft 398 kts 316°
2026-05-01 15:19 53.40713 19.00372 24294 ft 397 kts 317°
2026-05-01 15:19 53.44307 18.93397 24296 ft 398 kts 317°
2026-05-01 15:19 53.46096 18.89917 24288 ft 397 kts 316°
2026-05-01 15:20 53.49711 18.82950 24290 ft 396 kts 318°
2026-05-01 15:20 53.51654 18.79714 24288 ft 391 kts 325°
2026-05-01 15:20 53.53851 18.77074 24285 ft 385 kts 335°
2026-05-01 15:21 53.56197 18.75006 24286 ft 383 kts 339°
2026-05-01 15:21 53.58625 18.73169 24285 ft 380 kts 341°
2026-05-01 15:21 53.61042 18.71450 24279 ft 374 kts 342°
2026-05-01 15:21 53.63387 18.69804 24279 ft 359 kts 342°
2026-05-01 15:22 53.67966 18.66584 23756 ft 361 kts 342°
2026-05-01 15:22 53.70250 18.64957 23244 ft 358 kts 342°
2026-05-01 15:22 53.72518 18.63310 22659 ft 357 kts 341°
2026-05-01 15:23 53.74752 18.61492 21992 ft 360 kts 336°
2026-05-01 15:23 53.76881 18.59273 21639 ft 354 kts 332°
2026-05-01 15:23 53.78869 18.56880 21212 ft 351 kts 329°
2026-05-01 15:23 53.80798 18.54437 20695 ft 349 kts 329°
2026-05-01 15:24 53.82711 18.51980 20222 ft 345 kts 329°
2026-05-01 15:24 53.84609 18.49544 19691 ft 343 kts 329°
2026-05-01 15:24 53.86503 18.47121 19210 ft 339 kts 329°
2026-05-01 15:24 53.88363 18.44747 18711 ft 337 kts 329°
2026-05-01 15:25 53.90215 18.42390 18235 ft 334 kts 329°
2026-05-01 15:25 53.92051 18.40057 17686 ft 333 kts 329°
2026-05-01 15:25 53.93905 18.37704 17089 ft 333 kts 329°
2026-05-01 15:25 53.95743 18.35371 16588 ft 331 kts 329°
2026-05-01 15:26 53.97570 18.33045 16094 ft 328 kts 328°
2026-05-01 15:26 53.99394 18.30720 15623 ft 325 kts 328°
2026-05-01 15:26 54.01171 18.28452 15183 ft 322 kts 328°
2026-05-01 15:26 54.02957 18.26172 14681 ft 320 kts 328°
2026-05-01 15:27 54.04728 18.23909 14214 ft 317 kts 328°
2026-05-01 15:27 54.06472 18.21678 13785 ft 315 kts 328°
2026-05-01 15:27 54.08201 18.19466 13329 ft 313 kts 327°
2026-05-01 15:28 54.11657 18.15033 12380 ft 308 kts 327°
2026-05-01 15:28 54.13362 18.12843 11961 ft 307 kts 327°
2026-05-01 15:28 54.15060 18.10661 11492 ft 306 kts 327°
2026-05-01 15:29 54.18401 18.06355 10847 ft 294 kts 327°
2026-05-01 15:29 54.19984 18.04306 10774 ft 281 kts 327°
2026-05-01 15:29 54.22988 18.00421 10348 ft 266 kts 327°
2026-05-01 15:30 54.25934 17.96621 9662 ft 264 kts 327°
2026-05-01 15:31 54.31705 17.89133 8306 ft 258 kts 326°
2026-05-01 15:31 54.34536 17.85450 7516 ft 256 kts 326°
2026-05-01 15:32 54.37344 17.81789 6696 ft 253 kts 325°
2026-05-01 15:32 54.40116 17.78167 5793 ft 252 kts 324°
2026-05-01 15:33 54.42712 17.70653 4780 ft 252 kts 289°
2026-05-01 15:34 54.44186 17.62440 4405 ft 224 kts 291°